Location: Unspecified
(51.5147°N, 7.4673°E)
Time: 19:04:52
(UTC+01:00)

Vanguard 1 Rocket - Pass Details

Date: 25 February 2026
Orbit: 653 x 4214 km, 34.3° (Epoch: 12 March)

Event Time Altitude Azimuth Distance (km) Brightness Sun altitude
Rises 18:56:41 0° 265° (W) 5,921 14.0 -9.0°
Reaches altitude 10° 19:02:40 10° 246° (WSW) 5,581 12.6 -10.0°
Maximum altitude 19:11:20 16° 216° (SW) 5,884 12.0 -11.3°
Drops below altitude 10° 19:22:07 10° 187° (S) 7,066 12.0 -13.0°
Sets 19:32:08 0° 170° (S) 8,411 12.2 -14.6°
